STARLINK-2743 (48682 NORAD) Tracking and Keplerian Element Data

This shows tracking and keplerian element data for the satellite.

Feedback or suggestion? Click here.




ElementValue
Catalog48682
NameSTARLINK-2743
Epoch Orbit177
Epoch Day170.58334491
Epoch Year2021
RAAN306.2518
Inclination53.0477
Eccentricity0.0001254
Argument of Perigee41.724
Mean Anonmoly87.0357
Mean Motion15.73220433
Decay Rate-7.989E-05
L11 48682U 21044AW 21170.58334491 -.00007989 00000-0 -52498-4 0 9994
L22 48682 53.0477 306.2518 0001254 41.7240 87.0357 15.73220433 1776

Live tracking and technical data element details for STARLINK-2743 (NORAD 48682). STARLINK-2743 can be tracked NOW for your location showing map with azimuth and elevation plus other details from your city location.

Track the satellite on the map from your city or location and see movement details for azimuth, elevation, latitude, longitude, range, height, and movement on the map or in text.







IsCatalogInMostPopularTable: catalog: 48682, numindb: 4
Update: records affected: 1



GetName: 48682 STARLINK-2743

Hit Count: updated at: Mon, 21 Jun 2021 03:41:52 GMT